AMAZONAS 3 1 39078U 13006A 21060.95170697 -.00000290 00000-0 00000+0 0 9991 2 39078 0.0446 236.6491 0002801 67.0004 137.9282 1.00272164 29581 AZERSPACE 1 1 39079U 13006B 21060.68589904 .00000126 00000-0 00000-0 0 9995 2 39079 0.0185 162.7876 0001258 188.3135 101.4971 1.00269501 29419 ARIANE 5 R/B 1 39080U 13006C 21060.46409770 .00000074 00000-0 10578-3 0 9991 2 39080 6.0461 113.3888 7209678 126.2282 323.2540 2.35332733 68355 ARIANE 5 DEB [SYLDA] 1 39081U 13006D 21060.96021023 .00042499 00000-0 52953-2 0 9997 2 39081 6.3535 31.2462 6345122 296.7056 13.0243 3.55845254 87639